Flag for Germany Weather past 2 weeks in Dormagen, North Rhine-Westphalia, Germany

Now
59 °F

Partly sunny.


Feels Like: 59 °F
Forecast: 51 / 62 °F
Wind: 1 mph from North

Location: Duesseldorf

Current Time: May 24, 2015 at 11:30:57 AM

Latest Report: May 24, 2015 at 10:50 AM


Visibility: N/A

Pressure: 30.12 "Hg

Humidity: 63%

Dew point: 46 °F

Location of DormagenLocation

Historic Weather in Dormagen — Graph

°F

Dormagen temperature yesterday

Maximum temperature yesterday: 68 °F (at 1:50 PM)
Minimum temperature yesterday: 52 °F (at 3:50 AM)
Average temperature yesterday: 58 °F

Past Weeks' High & Low Weather Summary

 TemperatureHumidityPressure
High79 °F (May 11, 4:20 PM)100% (May 16, 3:50 PM)30.36 "Hg (May 16, 3:50 PM)
Low37 °F (May 21, 4:20 AM)32% (May 13, 6:20 PM)29.65 "Hg (May 18, 6:20 PM)
Average57 °F65%30.08 "Hg
* Reported May 9 10:20 AM — May 24 10:20 AM, Dormagen, Weather by CustomWeather, © 2015

Note: Actual official high and low records may vary slightly from our data, if they occured in-between our weather recording intervals... More about our weather records

Advertising

Dormagen weather history for previous 24 hours

 ConditionsComfort  
Time TempWeatherWind HumidityBarometerVisibility
10:20 AM
Sun, May 24
57 °FPartly sunny.2 mph67%30.12 "HgN/A
9:50 AM55 °FPartly sunny.2 mph72%30.12 "HgN/A
9:20 AM54 °FPartly sunny.2 mph77%30.12 "HgN/A
8:50 AM54 °FPartly sunny.2 mph72%30.12 "HgN/A
8:20 AM52 °FPartly sunny.3 mph77%30.12 "HgN/A
7:50 AM52 °FPartly sunny.5 mph77%30.12 "HgN/A
7:20 AM50 °FPartly sunny.5 mph76%30.12 "HgN/A
6:50 AM50 °FPartly sunny.6 mph76%30.12 "HgN/A
6:20 AM50 °FPassing clouds.6 mph76%30.12 "HgN/A
5:50 AM50 °FPassing clouds.3 mph76%30.12 "HgN/A
5:20 AM48 °FPassing clouds.5 mph87%30.15 "HgN/A
4:50 AM48 °FPassing clouds.5 mph87%30.12 "HgN/A
4:20 AM48 °FPassing clouds.5 mph82%30.12 "HgN/A
3:50 AM46 °FPassing clouds.5 mph87%30.15 "HgN/A
3:20 AM46 °FPartly cloudy.6 mph87%30.15 "HgN/A
2:50 AM46 °FPartly cloudy.6 mph87%30.15 "HgN/A
2:20 AM48 °FPassing clouds.6 mph82%30.15 "HgN/A
1:50 AM50 °FPassing clouds.7 mph76%30.15 "HgN/A
1:20 AM50 °FPassing clouds.6 mph82%30.15 "HgN/A
12:50 AM50 °FPassing clouds.8 mph88%30.18 "HgN/A
12:20 AM52 °FClear.3 mph82%30.18 "Hg10 mi
11:50 PM
Sat, May 23
52 °FClear.3 mph88%30.15 "Hg10 mi
11:20 PM54 °FClear.3 mph82%30.15 "Hg10 mi
10:50 PM55 °FPassing clouds.3 mph77%30.18 "HgN/A
10:20 PM55 °FPartly sunny.5 mph77%30.18 "HgN/A
9:50 PM57 °FPartly sunny.7 mph72%30.15 "HgN/A
9:20 PM57 °FPartly sunny.8 mph72%30.15 "HgN/A
8:50 PM57 °FPartly sunny.9 mph77%30.15 "HgN/A
8:20 PM57 °FPartly sunny.10 mph77%30.15 "HgN/A
7:50 PM57 °FPartly sunny.10 mph77%30.15 "HgN/A
7:20 PM59 °FPartly sunny.13 mph77%30.15 "HgN/A
6:50 PM59 °FPartly sunny.10 mph77%30.15 "HgN/A
6:20 PM59 °FBroken clouds.13 mph77%30.15 "HgN/A
5:50 PM59 °FBroken clouds.10 mph77%30.15 "HgN/A
5:20 PM59 °FBroken clouds.12 mph77%30.15 "HgN/A
4:50 PM61 °FBroken clouds.13 mph72%30.15 "HgN/A
4:20 PM61 °FLight rain. Broken clouds.12 mph77%30.15 "HgN/A
3:50 PM63 °FBroken clouds.13 mph68%30.15 "HgN/A
3:20 PM64 °FBroken clouds.12 mph64%30.12 "HgN/A
2:50 PM66 °FBroken clouds.10 mph56%30.12 "HgN/A
2:20 PM66 °FBroken clouds.10 mph56%30.12 "HgN/A
1:50 PM68 °FBroken clouds.8 mph49%30.12 "HgN/A
1:20 PM66 °FSunny.9 mph46%30.15 "Hg10 mi
12:50 PM66 °FSunny.8 mph43%30.15 "Hg10 mi
12:20 PM66 °FPassing clouds.6 mph43%30.15 "HgN/A
11:50 AM64 °FSunny.3 mph49%30.15 "Hg10 mi
11:20 AM64 °FSunny.3 mph52%30.18 "Hg10 mi
Weather by CustomWeather, © 2015

See weather overviewHow to use our weather pages